Location: Appletree Creek
(38.7363°N, 122.6833°W)
Time: 09:22:37
(UTC+00:00)

Cosmos 389 Rocket - Pass Details

Date: 18 September 2020
Orbit: 442 x 475 km, 81.1° (Epoch: 22 October)

Event Time Altitude Azimuth Distance (km) Brightness Sun altitude
Exits shadow 12:27:08 20° 320° (NW) 1,129 4.2 -17.8°
Drops below altitude 10° 12:28:47 10° 343° (NNW) 1,621 5.2 -17.4°
Sets 12:31:09 0° 357° (N) 2,509 6.4 -17.0°
